Regional Weather Roundup
Issued by NWS Goodland, KS

Home | Current Version | Previous Version | Text Only | Print | Product List | Glossary On
Versions: 1 2 3 4 5 6 7 8 9 10 11 12 13 14 15 16 17 18 19 20 21 22 23 24 25 26 27 28 29 30 31 32 33 34 35 36 37 38 39 40 41 42 43 44 45 46 47 48 49 50
000
ASUS43 KGLD 082008
RWRGLD

GOODLAND FORECAST AREA HOURLY WEATHER ROUNDUP
NATIONAL WEATHER SERVICE GOODLAND KS
100 PM MST THU DEC 08 2016

...OFFICIAL OBSERVATIONS...

CITY           SKY/WX    TMP DP  RH WIND       PRES   REMARKS
GOODLAND KS    SUNNY     17   3  54 NW3       30.51F
HILL CITY KS   SUNNY     22   4  46 N12       30.62F WCI  10
IMPERIAL NEB   SUNNY     15   2  56 N5        30.53F
MCCOOK NEB     SUNNY     15   4  61 NW8       30.59F
AKRON CO       CLOUDY    14   2  58 SE13      30.40F WCI   0
BURLINGTON CO  SUNNY     19   2  47 CALM      30.46F
LIMON CO       MOSUNNY   17   8  67 S12       30.34F WCI   4
$$

...UNOFFICIAL OBSERVATIONS...

CITY           SKY/WX    TMP DP  RH WIND       PRES   REMARKS
COLBY KS       SUNNY     19   7  58 W3        30.56F
LENORA KS        N/A     20  32 100 MISG        N/A
NORTON KS      SUNNY     18   1  49 NW9       30.60F
SHARON SPRINGS   N/A     18   6  58 CALM        N/A
TRENTON NEB      N/A     14  32 100 CALM        N/A
KIT CARSON CO    N/A     21   3  46 MISG        N/A
YUMA CO        FAIR      12  -2  52 E5        30.46F
$$




USA.gov is the U.S. government's official web portal to all federal, state and local government web resources and services.